[[[{"header":{"parameterUnit":"kt","parameterCategory":2,"dx":1,"dy":1,"la1":30.253999710083008,"la2":30.299108505249023,"lo1":-89.0895004272461,"lo2":-89.04439544677734,"nx":28,"ny":28,"refTime":"2022-09-20T15:00:00:Z","depth":0,"parameterNumber":1,"parameterNumberName":"U-component_of_WINDS"},"data":[1.653,1.6511,1.649,1.646,1.6435,1.641,1.6395,1.6372,1.6348,1.6315,1.6293,1.6268,1.6234,1.6201,1.6175,1.6164,1.6154,1.6165,1.6151,1.6123,1.6118,1.6113,1.6116,1.6164,1.6164,1.6183,1.6183,1.6183,1.6517,1.6494,1.6471,1.6434,1.6414,1.6392,1.636,1.6345,1.6322,1.6292,1.6267,1.6236,1.6208,1.6168,1.6137,1.6128,1.6114,1.6121,1.6121,1.6116,1.6086,1.609,1.6133,1.6133,1.6133,1.6133,1.6133,1.6133,1.649,1.6479,1.6444,1.6418,1.6393,1.6368,1.6353,1.6323,1.6299,1.6264,1.624,1.6214,1.6178,1.6127,1.6103,1.6082,1.607,1.6069,1.6069,1.607,1.6075,1.6054,1.6075,1.6075,1.6074,1.6074,1.6074,0,1.6462,1.6445,1.642,1.639,1.6369,1.6342,1.6313,1.6304,1.6256,1.6237,1.6209,1.6188,1.6147,1.6117,1.6081,1.6056,1.6028,1.6022,1.6021,1.6033,1.605,1.6042,1.5995,1.6021,1.602,1.602,1.6019,1.6019,1.6433,1.6422,1.6373,1.6358,1.6336,1.6313,1.6294,1.6252,1.6234,1.6192,1.6183,1.6152,1.6125,1.6081,1.6042,1.601,1.5996,1.6009,1.5991,1.6004,1.5997,1.5999,1.5998,1.6013,1.6014,1.6014,1.6015,0,1.642,1.6382,1.6356,1.6307,1.6294,1.6284,1.6242,1.6228,1.6198,1.6174,1.6166,1.6119,1.609,1.6048,1.6006,1.5985,1.5969,1.5956,1.5983,1.5978,1.5986,1.5987,1.6016,1.6019,1.5969,1.5969,1.5969,0,1.638,1.6366,1.631,1.6297,1.628,1.6238,1.6222,1.6195,1.6161,1.6142,1.6104,1.6086,1.6035,1.6012,1.598,1.596,1.5951,1.5934,1.5926,1.5937,1.594,1.5926,1.5924,1.5906,1.5906,1.5906,1.5906,0,1.6362,1.6314,1.6293,1.6275,1.6219,1.621,1.6186,1.6147,1.6127,1.6095,1.6083,1.6048,1.6029,1.6003,1.5963,1.5953,1.5936,1.5913,1.5918,1.592,1.5916,1.5917,1.5954,1.5905,1.5905,1.5905,1.5905,0,1.6323,1.6292,1.6266,1.6219,1.6208,1.6193,1.6156,1.6133,1.6095,1.6074,1.6048,1.6016,1.5993,1.5974,1.5942,1.594,1.5924,1.5904,1.5904,1.5899,1.5878,1.5906,1.5946,1.5949,1.5896,1.5896,1.5896,0,1.6315,1.6277,1.6239,1.6214,1.6191,1.615,1.6132,1.6098,1.6068,1.6044,1.6011,1.5982,1.5958,1.5943,1.5933,1.5897,1.59,1.5895,1.586,1.586,1.5874,1.591,1.5926,1.5942,1.5894,1.5894,1.5894,0,1.6302,1.6232,1.623,1.6209,1.6156,1.6135,1.6114,1.6076,1.6062,1.6027,1.6008,1.5965,1.5947,1.5921,1.589,1.5882,1.5897,1.5861,1.5859,1.587,1.5889,1.5905,1.5908,1.5878,1.5878,1.5878,1.5893,0,1.6255,1.6229,1.6222,1.6172,1.6149,1.613,1.6084,1.6065,1.6039,1.6007,1.5978,1.5936,1.5894,1.5885,1.5857,1.5851,1.5845,1.5824,1.5801,1.5825,1.5829,1.583,1.58,1.5799,1.5798,1.5797,0,0,1.6256,1.6218,1.6175,1.6152,1.613,1.6085,1.6069,1.6041,1.5986,1.5971,1.5959,1.5892,1.5857,1.5826,1.583,1.5812,1.5807,1.5799,1.5813,1.5816,1.5817,1.5822,1.5824,1.5796,1.5795,1.5795,1.5795,0,1.6229,1.6196,1.618,1.615,1.6104,1.607,1.6067,1.6012,1.599,1.596,1.5922,1.5898,1.5843,1.5812,1.5789,1.5802,1.5774,1.5793,1.5817,1.5807,1.581,1.5813,1.5819,1.5821,1.5793,1.5793,1.5793,0,1.6209,1.617,1.6156,1.6102,1.607,1.6045,1.6011,1.5985,1.5966,1.5914,1.5884,1.5854,1.5807,1.5783,1.577,1.5757,1.5747,1.574,1.5744,1.5741,1.5729,1.5733,1.5736,1.5691,1.5691,1.5691,0,0,1.6192,1.6166,1.6108,1.6092,1.6075,1.6024,1.6005,1.5976,1.5935,1.5919,1.5878,1.5839,1.5807,1.5787,1.5754,1.5734,1.5721,1.5729,1.5734,1.5738,1.5738,1.5727,1.5731,1.5691,1.5691,1.5691,0,0,1.6182,1.6115,1.6095,1.607,1.6034,1.5974,1.5965,1.5939,1.5904,1.5901,1.5848,1.5835,1.5811,1.5781,1.578,1.5745,1.5723,1.5722,1.5765,1.577,1.5775,1.5782,1.5736,0,0,0,0,0,1.613,1.6124,1.6106,1.6095,1.6023,1.5984,1.5975,1.5931,1.5918,1.5913,1.5875,1.5844,1.577,1.5768,1.5757,1.5758,1.5684,1.5685,1.5686,1.5736,1.5742,1.5747,0,0,0,0,0,0,1.6125,1.6111,1.6106,1.6047,1.6031,1.5984,1.5952,1.594,1.5918,1.5913,1.5853,1.5843,1.5804,1.577,1.5761,1.5763,1.5739,1.5684,1.5685,1.5686,1.5738,1.5743,1.5747,0,0,0,0,0,1.6121,1.611,1.6006,1.6047,1.6032,1.5974,1.5952,1.5942,1.5923,1.5863,1.5852,1.5893,1.5805,1.5794,1.5764,1.5769,1.5745,1.5742,1.5685,1.5686,1.5686,1.574,0,0,0,0,0,0,1.6118,1.6099,1.6003,1.5997,1.6045,1.5976,1.5963,1.5943,1.5874,1.5863,1.59,1.5897,1.5806,1.5797,1.5789,1.5773,1.575,1.5747,1.5745,1.5685,1.5686,1.5687,0,0,0,0,0,0,1.6105,1.6095,1.5999,1.6,1.5994,1.5978,1.5967,1.5934,1.5874,1.5915,1.591,1.59,1.5818,1.58,1.5793,1.5743,1.5754,1.5751,1.5749,1.5747,1.5686,1.5686,0,0,0,0,0,0,1.61,1.6091,1.6001,1.5996,1.5991,1.592,1.5947,1.5876,1.5876,1.5919,1.5875,1.5874,1.5821,1.5813,1.5796,1.5749,1.5745,1.5754,1.5752,1.575,1.5749,0,0,0,0,0,0,0,1.6096,1.6166,1.6038,1.5993,1.5988,1.5941,1.594,1.5938,1.5876,1.5875,1.5875,1.5874,1.5773,1.5769,1.5766,1.5754,0,0,1.5755,1.5753,0,0,0,0,0,0,0,0,1.6169,1.6167,1.6038,1.6037,1.6036,1.5941,1.594,1.5938,1.5876,1.5875,1.5875,1.5875,1.5772,1.5769,1.5766,0,0,0,0,0,0,0,0,0,0,0,0,0,0,0,1.6038,1.6037,0,1.5941,1.594,1.5938,1.5876,1.5875,1.5875,1.5875,1.5771,1.5769,1.5766,0,0,0,0,0,0,0,0,0,0,0,0,0,0,0,0,0,0,0,0,0,0,0,0,0,0,0,0,0,0,0,0,0,0,0,0,0,0,0,0,0,0,0,0,0,0,0,0,0,0,0,0,0,0,0,0,0,0,0,0,0,0,0,0,0,0,0,0,0]}],[{"header":{"parameterUnit":"kt","parameterCategory":2,"dx":1,"dy":1,"la1":30.253999710083008,"la2":30.299108505249023,"lo1":-89.0895004272461,"lo2":-89.04439544677734,"nx":28,"ny":28,"refTime":"2022-09-20T15:00:00:Z","depth":0,"parameterNumber":2,"parameterNumberName":"V-component_of_WINDS"},"data":[-2.7405,-2.75,-2.7527,-2.7647,-2.7691,-2.7778,-2.7818,-2.7872,-2.7921,-2.8028,-2.8094,-2.8129,-2.8188,-2.8273,-2.8346,-2.836,-2.839,-2.8405,-2.8419,-2.8327,-2.8316,-2.8305,-2.8285,-2.8411,-2.8411,-2.8512,-2.8513,-2.8514,-2.7338,-2.7382,-2.7453,-2.754,-2.7601,-2.7603,-2.7671,-2.7723,-2.78,-2.7861,-2.7927,-2.8023,-2.8102,-2.8157,-2.8237,-2.8282,-2.8287,-2.8302,-2.83,-2.831,-2.8211,-2.819,-2.8297,-2.8297,-2.8297,-2.8297,-2.8296,-2.8296,-2.7222,-2.7278,-2.7346,-2.7423,-2.7473,-2.7531,-2.7589,-2.7631,-2.7701,-2.7787,-2.7804,-2.7892,-2.7957,-2.8066,-2.8108,-2.8178,-2.8166,-2.819,-2.8197,-2.8203,-2.8207,-2.8061,-2.8192,-2.8192,-2.8192,-2.8191,-2.8191,0,-2.7147,-2.7165,-2.7234,-2.7312,-2.7369,-2.7432,-2.7493,-2.7529,-2.7575,-2.763,-2.7713,-2.7764,-2.7866,-2.7947,-2.8027,-2.8066,-2.8073,-2.8076,-2.8093,-2.8088,-2.8073,-2.8084,-2.7925,-2.8072,-2.8071,-2.807,-2.807,-2.8069,-2.7034,-2.7095,-2.7177,-2.7223,-2.7262,-2.7335,-2.7383,-2.7419,-2.7468,-2.7549,-2.7596,-2.7676,-2.7743,-2.787,-2.7918,-2.7994,-2.7998,-2.8052,-2.8009,-2.8002,-2.8002,-2.7998,-2.8006,-2.806,-2.8061,-2.8062,-2.8063,0,-2.6969,-2.701,-2.7112,-2.7188,-2.7208,-2.727,-2.7335,-2.7391,-2.7426,-2.7508,-2.7529,-2.7583,-2.7663,-2.7703,-2.7801,-2.7819,-2.7923,-2.7924,-2.7902,-2.7905,-2.7959,-2.7954,-2.8122,-2.8147,-2.8015,-2.8016,-2.8017,0,-2.689,-2.6968,-2.7025,-2.7082,-2.7171,-2.7205,-2.7291,-2.7329,-2.7385,-2.7451,-2.7464,-2.7525,-2.7566,-2.7632,-2.7659,-2.7751,-2.7769,-2.7789,-2.7795,-2.7789,-2.7787,-2.7817,-2.7811,-2.7805,-2.7804,-2.7803,-2.7802,0,-2.6784,-2.6905,-2.6998,-2.7032,-2.712,-2.7163,-2.7201,-2.7264,-2.731,-2.7377,-2.7408,-2.7482,-2.7523,-2.7581,-2.7615,-2.7585,-2.7728,-2.7693,-2.7748,-2.7748,-2.7779,-2.7777,-2.7915,-2.7801,-2.7801,-2.7801,-2.7801,0,-2.6727,-2.6794,-2.6921,-2.6995,-2.7025,-2.7085,-2.7162,-2.7223,-2.7288,-2.7309,-2.7361,-2.7375,-2.7457,-2.742,-2.7535,-2.7486,-2.7526,-2.7552,-2.7557,-2.7568,-2.7527,-2.7602,-2.7727,-2.7743,-2.7577,-2.7575,-2.7573,0,-2.6596,-2.6735,-2.6765,-2.6885,-2.6955,-2.6967,-2.7034,-2.7091,-2.7125,-2.7189,-2.7226,-2.7298,-2.7279,-2.7307,-2.7358,-2.7399,-2.7462,-2.7391,-2.7485,-2.7488,-2.747,-2.7586,-2.7595,-2.7695,-2.755,-2.7552,-2.7554,0,-2.65,-2.6605,-2.6624,-2.6665,-2.6745,-2.6803,-2.688,-2.696,-2.7001,-2.7062,-2.7129,-2.723,-2.7221,-2.7266,-2.7285,-2.7336,-2.742,-2.7319,-2.7321,-2.7337,-2.754,-2.755,-2.7566,-2.7421,-2.7424,-2.7427,-2.7535,0,-2.6408,-2.6482,-2.6535,-2.6623,-2.6673,-2.6749,-2.6791,-2.6839,-2.6852,-2.6886,-2.6983,-2.7038,-2.7118,-2.7146,-2.7159,-2.7263,-2.7252,-2.724,-2.7208,-2.7283,-2.732,-2.7335,-2.715,-2.7149,-2.7149,-2.7148,0,0,-2.6273,-2.638,-2.641,-2.6486,-2.653,-2.6541,-2.6619,-2.6663,-2.6752,-2.6783,-2.6765,-2.6916,-2.6962,-2.7076,-2.7102,-2.7133,-2.7156,-2.7128,-2.7247,-2.7258,-2.7268,-2.7307,-2.7321,-2.7147,-2.7147,-2.7147,-2.7147,0,-2.6249,-2.6295,-2.6371,-2.6419,-2.649,-2.6522,-2.654,-2.6612,-2.6637,-2.6731,-2.6738,-2.6801,-2.6919,-2.6968,-2.7008,-2.7115,-2.7117,-2.7136,-2.7181,-2.7239,-2.7251,-2.7261,-2.7302,-2.7315,-2.7145,-2.7145,-2.7145,0,-2.6163,-2.6216,-2.6257,-2.6358,-2.6404,-2.6474,-2.6452,-2.6526,-2.6579,-2.6585,-2.6679,-2.6715,-2.6782,-2.6883,-2.693,-2.6915,-2.7079,-2.7034,-2.7038,-2.7045,-2.7104,-2.7117,-2.713,-2.6967,-2.6967,-2.6966,0,0,-2.6136,-2.6204,-2.6272,-2.6355,-2.6384,-2.6432,-2.6472,-2.649,-2.655,-2.6574,-2.6621,-2.6679,-2.6749,-2.6794,-2.6861,-2.6965,-2.6983,-2.701,-2.7018,-2.7025,-2.7035,-2.7095,-2.7109,-2.6963,-2.6963,-2.6963,0,0,-2.6123,-2.6205,-2.6207,-2.631,-2.6367,-2.6439,-2.6489,-2.6494,-2.6558,-2.6554,-2.6586,-2.6603,-2.6698,-2.6732,-2.6688,-2.685,-2.6818,-2.6829,-2.6824,-2.6835,-2.6844,-2.6834,-2.6672,0,0,0,0,0,-2.6119,-2.6195,-2.6196,-2.6219,-2.6346,-2.6438,-2.6454,-2.6483,-2.646,-2.6499,-2.6539,-2.6538,-2.6716,-2.6678,-2.67,-2.6749,-2.6925,-2.6932,-2.6938,-2.6956,-2.6968,-2.6977,0,0,0,0,0,0,-2.6128,-2.6156,-2.6194,-2.6269,-2.6297,-2.6435,-2.6403,-2.6413,-2.6457,-2.6455,-2.653,-2.654,-2.6566,-2.6668,-2.6688,-2.6734,-2.6666,-2.6928,-2.6933,-2.6938,-2.696,-2.6969,-2.6977,0,0,0,0,0,-2.6136,-2.6159,-2.6354,-2.6268,-2.6293,-2.6349,-2.6401,-2.6409,-2.6443,-2.6504,-2.6514,-2.6461,-2.6566,-2.6585,-2.668,-2.6724,-2.6652,-2.666,-2.6931,-2.6936,-2.694,-2.6965,0,0,0,0,0,0,-2.6141,-2.6167,-2.636,-2.6368,-2.6241,-2.6342,-2.6359,-2.6405,-2.6489,-2.65,-2.6436,-2.6434,-2.6568,-2.6582,-2.6596,-2.6719,-2.6641,-2.6649,-2.6653,-2.6935,-2.6938,-2.6941,0,0,0,0,0,0,-2.6155,-2.6174,-2.6364,-2.6329,-2.6334,-2.6335,-2.635,-2.6435,-2.649,-2.6416,-2.6417,-2.6434,-2.6546,-2.658,-2.6591,-2.6721,-2.6633,-2.664,-2.6645,-2.6648,-2.6938,-2.694,0,0,0,0,0,0,-2.6163,-2.618,-2.6327,-2.633,-2.6335,-2.6434,-2.641,-2.6538,-2.646,-2.6412,-2.6454,-2.6451,-2.6544,-2.6556,-2.6588,-2.6713,-2.6719,-2.6633,-2.6638,-2.6641,-2.6644,0,0,0,0,0,0,0,-2.617,-2.6052,-2.6308,-2.6332,-2.6335,-2.6449,-2.6451,-2.6453,-2.646,-2.6457,-2.6455,-2.6453,-2.6592,-2.66,-2.6608,-2.6707,0,0,-2.6632,-2.6636,0,0,0,0,0,0,0,0,-2.6046,-2.605,-2.6308,-2.631,-2.6312,-2.6449,-2.6451,-2.6453,-2.6459,-2.6457,-2.6455,-2.6453,-2.6595,-2.6601,-2.6607,0,0,0,0,0,0,0,0,0,0,0,0,0,0,0,-2.6309,-2.631,0,-2.6449,-2.6451,-2.6452,-2.6459,-2.6457,-2.6456,-2.6454,-2.6596,-2.6601,-2.6607,0,0,0,0,0,0,0,0,0,0,0,0,0,0,0,0,0,0,0,0,0,0,0,0,0,0,0,0,0,0,0,0,0,0,0,0,0,0,0,0,0,0,0,0,0,0,0,0,0,0,0,0,0,0,0,0,0,0,0,0,0,0,0,0,0,0,0,0,0]}]]]